Location: Lafig�re
(44.4503°N, 4.0357°E)
Time: 17:37:16
(UTC+00:00)

S-56A Canister/Altair - Pass Details

Date: 27 January 2021
Orbit: 631 x 2501 km, 38.9° (Epoch: 04 March)

Event Time Altitude Azimuth Distance (km) Brightness Sun altitude
Rises 01:24:28 0° 235° (SW) 3,293 - -58.2°
Reaches altitude 10° 01:27:21 10° 225° (SW) 2,196 - -57.8°
Maximum altitude 01:31:33 30° 164° (SSE) 1,159 - -57.3°
Drops below altitude 10° 01:35:25 10° 103° (ESE) 2,008 - -56.8°
Sets 01:37:56 0° 92° (E) 2,959 - -56.5°
